Change the Weather History Date:

Tuesday, November 20, 2012

  Actual Average Record
Temperature  
Mean Temperature 30 °F -  
Max Temperature 33 °F 38 °F 48 °F (2000)
Min Temperature 28 °F 31 °F 8 °F (1996)
Degree Days  
Heating Degree Days 34    
Moisture  
Dew Point 19 °F    
Average Humidity 61    
Maximum Humidity 80    
Minimum Humidity 51    
Precipitation  
Precipitation 0.00 in - - ()
Sea Level Pressure  
Sea Level Pressure 29.51 in    
Wind  
Wind Speed 11 mph (NE)    
Max Wind Speed 17 mph    
Max Gust Speed 28 mph    
Visibility 10 miles    
Events      
Averages and records for this station are not official NWS values.
T = Trace of Precipitation, MM = Missing Value Source: NWS Daily Summary

Daily Weather History Graph

Daily Weather History Graph

Search for Another Location

Airport or City:

Trip Planner

Search our weather history database for the weather conditions in past years. The results will help you decide how hot, cold, wet, or windy it might be!

Date:

Astronomy

Nov. 20, 2012 Rise Set
Actual Time 7:48 AM AKST 3:33 PM AKST
Civil Twilight 7:03 AM AKST 4:18 PM AKST
Nautical Twilight 6:15 AM AKST 5:06 PM AKST
Astronomical Twilight 5:30 AM AKST 5:51 PM AKST
Moon 12:41 PM AKST (11/20) No Moon Set
Length of Visible Light 9h 14m
Length of Day
7h 44m
First Quarter, 53% of the Moon is Illuminated
Nov 20
First Quarter
Nov 28
Full
Dec 6
Last Quarter
Dec 12
New
Dec 19
First Quarter

Hourly Weather History & Observations

Time (AKST) Temp. Windchill Dew Point Humidity Pressure Visibility Wind Dir Wind Speed Gust Speed Precip Events Conditions
12:16 AM 33.8 °F 24.3 °F 21.2 °F 60% 29.44 in 10.0 mi NE 13.8 mph 21.9 mph N/A   Overcast
12:36 AM 33.8 °F 23.2 °F 21.2 °F 60% 29.44 in 10.0 mi NE 17.3 mph 23.0 mph N/A   Overcast
12:56 AM 33.8 °F 24.3 °F 21.2 °F 60% 29.46 in 10.0 mi ENE 13.8 mph 25.3 mph N/A   Overcast
1:16 AM 33.8 °F 24.8 °F 23.0 °F 65% 29.48 in 4.0 mi NE 12.7 mph 19.6 mph N/A   Overcast
1:36 AM 32.0 °F 22.5 °F 23.0 °F 69% 29.47 in 10.0 mi NE 12.7 mph 20.7 mph N/A   Overcast
1:56 AM 33.8 °F 24.3 °F 21.2 °F 60% 29.48 in 10.0 mi ENE 13.8 mph 23.0 mph N/A   Overcast
2:16 AM 32.0 °F 24.8 °F 21.2 °F 64% 29.49 in 10.0 mi ENE 8.1 mph 24.2 mph N/A   Overcast
2:36 AM 32.0 °F 22.1 °F 21.2 °F 64% 29.51 in 5.0 mi ENE 13.8 mph 20.7 mph N/A   Overcast
2:56 AM 30.2 °F 20.8 °F 24.8 °F 80% 29.51 in 10.0 mi NE 11.5 mph 20.7 mph N/A   Overcast
3:16 AM 30.2 °F 22.6 °F 24.8 °F 80% 29.51 in 9.0 mi ENE 8.1 mph 23.0 mph N/A   Overcast
3:36 AM 30.2 °F 20.8 °F 23.0 °F 75% 29.52 in 7.0 mi ENE 11.5 mph 18.4 mph N/A   Overcast
3:56 AM 32.0 °F 23.0 °F 23.0 °F 69% 29.52 in 8.0 mi ENE 11.5 mph 23.0 mph N/A   Overcast
4:16 AM 32.0 °F 22.1 °F 21.2 °F 64% 29.53 in 9.0 mi NE 13.8 mph 26.5 mph N/A   Overcast
4:36 AM 32.0 °F 23.0 °F 21.2 °F 64% 29.54 in 10.0 mi ENE 11.5 mph 24.2 mph N/A   Overcast
4:56 AM 30.2 °F 22.6 °F 23.0 °F 75% 29.55 in 9.0 mi ENE 8.1 mph 16.1 mph N/A   Overcast
5:16 AM 30.2 °F 20.8 °F 23.0 °F 75% 29.55 in 10.0 mi NE 11.5 mph 20.7 mph N/A   Overcast
5:36 AM 32.0 °F 23.0 °F 21.2 °F 64% 29.55 in 10.0 mi ENE 11.5 mph 21.9 mph N/A   Overcast
5:56 AM 32.0 °F 22.5 °F 21.2 °F 64% 29.55 in 10.0 mi NE 12.7 mph 27.6 mph N/A   Overcast
6:16 AM 32.0 °F 22.1 °F 21.2 °F 64% 29.55 in 10.0 mi NE 13.8 mph 24.2 mph N/A   Overcast
6:36 AM 32.0 °F 21.6 °F 21.2 °F 64% 29.55 in 10.0 mi NE 15.0 mph 23.0 mph N/A   Overcast
6:56 AM 32.0 °F 22.1 °F 21.2 °F 64% 29.55 in 10.0 mi NE 13.8 mph 19.6 mph N/A   Overcast
7:16 AM 32.0 °F 22.5 °F 21.2 °F 64% 29.56 in 10.0 mi NE 12.7 mph 23.0 mph N/A   Overcast
7:36 AM 32.0 °F 23.0 °F 19.4 °F 60% 29.56 in 10.0 mi ENE 11.5 mph 20.7 mph N/A   Overcast
7:56 AM 30.2 °F 18.9 °F 19.4 °F 64% 29.55 in 10.0 mi NE 16.1 mph 21.9 mph N/A   Overcast
8:16 AM 32.0 °F 23.6 °F 21.2 °F 64% 29.55 in 10.0 mi ENE 10.4 mph 20.7 mph N/A   Overcast
8:36 AM 30.2 °F 19.8 °F 21.2 °F 69% 29.54 in 10.0 mi NE 13.8 mph 23.0 mph N/A   Overcast
8:56 AM 30.2 °F 20.2 °F 21.2 °F 69% 29.54 in 10.0 mi NE 12.7 mph 18.4 mph N/A   Scattered Clouds
9:16 AM 30.2 °F 21.9 °F 21.2 °F 69% 29.54 in 10.0 mi NE 9.2 mph 16.1 mph N/A   Clear
9:36 AM 30.2 °F 22.6 °F 19.4 °F 64% 29.55 in 10.0 mi NE 8.1 mph 20.7 mph N/A   Clear
9:56 AM 30.2 °F 22.6 °F 19.4 °F 64% 29.55 in 10.0 mi NNE 8.1 mph 17.3 mph N/A   Partly Cloudy
10:16 AM 32.0 °F 25.6 °F 19.4 °F 60% 29.55 in 10.0 mi NE 6.9 mph 17.3 mph N/A   Scattered Clouds
10:36 AM 32.0 °F 24.8 °F 19.4 °F 60% 29.55 in 10.0 mi NE 8.1 mph - N/A   Clear
11:16 AM 32.0 °F 24.2 °F 19.4 °F 60% 29.54 in 10.0 mi NE 9.2 mph 17.3 mph N/A   Clear
11:36 AM 32.0 °F 22.1 °F 19.4 °F 60% 29.54 in 10.0 mi NE 13.8 mph 23.0 mph N/A   Clear
11:56 AM 32.0 °F 23.0 °F 19.4 °F 60% 29.54 in 10.0 mi NE 11.5 mph 18.4 mph N/A   Clear
12:16 PM 32.0 °F 24.8 °F 17.6 °F 55% 29.53 in 10.0 mi NNE 8.1 mph 23.0 mph N/A   Clear
12:36 PM 30.2 °F 23.4 °F 17.6 °F 60% 29.53 in 10.0 mi NE 6.9 mph 20.7 mph N/A   Clear
1:16 PM 30.2 °F 20.8 °F 17.6 °F 60% 29.52 in 10.0 mi NNE 11.5 mph 21.9 mph N/A   Clear
1:36 PM 30.2 °F 24.3 °F 17.6 °F 60% 29.51 in 10.0 mi North 5.8 mph - N/A   Clear
1:56 PM 30.2 °F 25.4 °F 17.6 °F 60% 29.51 in 10.0 mi NNW 4.6 mph - N/A   Clear
2:16 PM 30.2 °F 23.4 °F 17.6 °F 60% 29.50 in 10.0 mi North 6.9 mph - N/A   Clear
2:36 PM 30.2 °F 25.4 °F 17.6 °F 60% 29.49 in 10.0 mi NNE 4.6 mph 18.4 mph N/A   Clear
2:56 PM 30.2 °F 23.4 °F 15.8 °F 55% 29.49 in 10.0 mi North 6.9 mph - N/A   Clear
3:16 PM 30.2 °F 21.9 °F 15.8 °F 55% 29.48 in 10.0 mi NW 9.2 mph - N/A   Clear
3:36 PM 30.2 °F 24.3 °F 15.8 °F 55% 29.48 in 10.0 mi North 5.8 mph - N/A   Clear
3:56 PM 30.2 °F 20.8 °F 15.8 °F 55% 29.47 in 10.0 mi NW 11.5 mph 16.1 mph N/A   Clear
4:16 PM 30.2 °F 25.4 °F 15.8 °F 55% 29.48 in 10.0 mi NNE 4.6 mph 16.1 mph N/A   Clear
4:36 PM 30.2 °F 23.4 °F 15.8 °F 55% 29.48 in 10.0 mi NNW 6.9 mph - N/A   Clear
4:56 PM 30.2 °F 23.4 °F 15.8 °F 55% 29.48 in 10.0 mi NNW 6.9 mph - N/A   Clear
5:16 PM 30.2 °F 21.3 °F 15.8 °F 55% 29.47 in 10.0 mi NW 10.4 mph 17.3 mph N/A   Clear
5:36 PM 30.2 °F 22.6 °F 15.8 °F 55% 29.48 in 10.0 mi North 8.1 mph - N/A   Clear
5:56 PM 30.2 °F 21.9 °F 15.8 °F 55% 29.47 in 10.0 mi NNE 9.2 mph 19.6 mph N/A   Clear
6:16 PM 30.2 °F 24.3 °F 15.8 °F 55% 29.47 in 10.0 mi NNE 5.8 mph - N/A   Clear
6:36 PM 30.2 °F 24.3 °F 15.8 °F 55% 29.47 in 10.0 mi NNW 5.8 mph - N/A   Clear
6:56 PM 30.2 °F 25.4 °F 15.8 °F 55% 29.47 in 10.0 mi NNE 4.6 mph 17.3 mph N/A   Clear
7:16 PM 28.4 °F 23.3 °F 15.8 °F 59% 29.47 in 10.0 mi North 4.6 mph - N/A   Clear
7:36 PM 28.4 °F 19.7 °F 15.8 °F 59% 29.47 in 10.0 mi NE 9.2 mph - N/A   Clear
7:56 PM 28.4 °F 21.2 °F 15.8 °F 59% 29.47 in 10.0 mi NE 6.9 mph - N/A   Clear
8:16 PM 28.4 °F 22.2 °F 15.8 °F 59% 29.47 in 10.0 mi NNE 5.8 mph - N/A   Clear
8:36 PM 28.4 °F 23.3 °F 15.8 °F 59% 29.47 in 10.0 mi North 4.6 mph - N/A   Clear
8:56 PM 30.2 °F 23.4 °F 15.8 °F 55% 29.48 in 10.0 mi NE 6.9 mph - N/A   Scattered Clouds
9:16 PM 30.2 °F 21.9 °F 15.8 °F 55% 29.47 in 10.0 mi NNE 9.2 mph - N/A   Mostly Cloudy
9:36 PM 30.2 °F 21.9 °F 15.8 °F 55% 29.47 in 10.0 mi NNE 9.2 mph - N/A   Mostly Cloudy
9:56 PM 30.2 °F 21.9 °F 14.0 °F 51% 29.48 in 10.0 mi NE 9.2 mph 17.3 mph N/A   Scattered Clouds
10:16 PM 30.2 °F 21.3 °F 15.8 °F 55% 29.48 in 10.0 mi NE 10.4 mph 19.6 mph N/A   Scattered Clouds
10:36 PM 30.2 °F 23.4 °F 15.8 °F 55% 29.48 in 10.0 mi NNE 6.9 mph - N/A   Mostly Cloudy
10:56 PM 30.2 °F 21.9 °F 15.8 °F 55% 29.49 in 10.0 mi NE 9.2 mph 16.1 mph N/A   Partly Cloudy
11:16 PM 30.2 °F 24.3 °F 15.8 °F 55% 29.49 in 10.0 mi NE 5.8 mph - N/A   Clear
11:36 PM 30.2 °F 23.4 °F 15.8 °F 55% 29.49 in 10.0 mi NNE 6.9 mph - N/A   Partly Cloudy
11:56 PM 30.2 °F 21.3 °F 15.8 °F 55% 29.50 in 10.0 mi NE 10.4 mph 16.1 mph N/A   Mostly Cloudy